Terminal Aerodrome Forecast
Issued by NWS Atlanta, GA

Home | Current Version | Previous Version | Text Only | Print | Product List | Glossary On
Versions: 1 2 3 4 5 6 7 8 9 10 11 12 13 14 15 16 17 18 19 20 21 22 23 24 25 26 27 28 29 30 31 32 33 34 35 36 37 38 39 40 41 42 43 44 45 46 47 48 49 50
632
FTUS42 KFFC 181127
TAFATL
TAF
KATL 181127Z 1812/1918 12008KT P6SM SCT150 BKN200
     FM181600 13012KT P6SM BKN080
     FM190200 11007KT P6SM BKN100
     FM191600 11010G18KT P6SM SCT250=

USA.gov is the U.S. government's official web portal to all federal, state and local government web resources and services.